Time,TemperatureF,DewpointF,PressureIn,WindDirection,WindDirectionDegrees,WindSpeedMPH,WindSpeedGustMPH,Humidity,HourlyPrecipIn,Conditions,Clouds,dailyrainin,SoftwareType,DateUTC
2013-03-12 00:02:00,23.0,16.0,-100.00,WNW,300,11.0,15.0,73,0.00,,,-99.99,,2013-03-12 05:02:00,
2013-03-12 00:12:00,23.0,16.0,-100.00,WNW,290,11.0,13.0,73,0.00,,,-99.99,,2013-03-12 05:12:00,
2013-03-12 00:22:00,23.0,16.0,-100.00,WNW,290,9.0,14.0,73,0.00,,,-99.99,,2013-03-12 05:22:00,
2013-03-12 00:32:00,23.0,16.0,-100.00,WNW,295,8.0,11.0,73,0.00,,,-99.99,,2013-03-12 05:32:00,
2013-03-12 00:42:00,23.0,16.0,-100.00,WNW,295,8.0,11.0,73,0.00,,,-99.99,,2013-03-12 05:42:00,
2013-03-12 00:52:00,22.0,15.0,-100.00,WNW,285,7.0,9.0,73,0.00,,,-99.99,,2013-03-12 05:52:00,
2013-03-12 01:02:00,22.0,15.0,-100.00,WNW,285,7.0,9.0,73,0.00,,,-99.99,,2013-03-12 06:02:00,
2013-03-12 01:12:00,20.0,13.0,-100.00,West,280,6.0,7.0,75,0.00,,,-99.99,,2013-03-12 06:12:00,
2013-03-12 01:22:00,19.0,13.0,-100.00,West,280,6.0,7.0,76,0.00,,,-99.99,,2013-03-12 06:22:00,
2013-03-12 01:32:00,19.0,13.0,-100.00,West,280,4.0,6.0,79,0.00,,,-99.99,,2013-03-12 06:32:00,
2013-03-12 01:42:00,19.0,13.0,-100.00,West,280,4.0,6.0,79,0.00,,,-99.99,,2013-03-12 06:42:00,
2013-03-12 01:52:00,19.0,15.0,-100.00,WNW,285,4.0,5.0,81,0.00,,,-99.99,,2013-03-12 06:52:00,
2013-03-12 02:02:00,19.0,15.0,-100.00,WNW,285,4.0,5.0,81,0.00,,,-99.99,,2013-03-12 07:02:00,
2013-03-12 02:12:00,19.0,15.0,-100.00,West,280,5.0,6.0,82,0.00,,,-99.99,,2013-03-12 07:12:00,
2013-03-12 02:22:00,18.0,14.0,-100.00,West,275,6.0,7.0,82,0.00,,,-99.99,,2013-03-12 07:22:00,
2013-03-12 02:32:00,19.0,15.0,-100.00,West,280,6.0,7.0,84,0.00,,,-99.99,,2013-03-12 07:32:00,
2013-03-12 02:42:00,19.0,15.0,-100.00,West,280,6.0,7.0,84,0.00,,,-99.99,,2013-03-12 07:42:00,
2013-03-12 02:52:00,22.0,18.0,-100.00,West,280,8.0,10.0,84,0.00,,,-99.99,,2013-03-12 07:52:00,
2013-03-12 03:02:00,22.0,18.0,-100.00,West,280,8.0,10.0,84,0.00,,,-99.99,,2013-03-12 08:02:00,
2013-03-12 03:12:00,23.0,19.0,-100.00,West,280,10.0,12.0,84,0.00,,,-99.99,,2013-03-12 08:12:00,
2013-03-12 03:22:00,24.0,19.0,-100.00,West,270,9.0,13.0,83,0.00,,,-99.99,,2013-03-12 08:22:00,
2013-03-12 03:33:00,24.0,20.0,-100.00,WNW,290,12.0,16.0,81,0.00,,,-99.99,,2013-03-12 08:33:00,
2013-03-12 03:42:00,24.0,20.0,-100.00,WNW,290,12.0,16.0,81,0.00,,,-99.99,,2013-03-12 08:42:00,
2013-03-12 03:52:00,25.0,20.0,-100.00,WNW,290,11.0,15.0,79,0.00,,,-99.99,,2013-03-12 08:52:00,
2013-03-12 04:03:00,25.0,20.0,-100.00,WNW,290,11.0,15.0,79,0.00,,,-99.99,,2013-03-12 09:03:00,
2013-03-12 04:12:00,26.0,20.0,-100.00,WNW,290,14.0,18.0,78,0.00,,,-99.99,,2013-03-12 09:12:00,
2013-03-12 04:22:00,26.0,20.0,-100.00,WNW,285,12.0,16.0,78,0.00,,,-99.99,,2013-03-12 09:22:00,
2013-03-12 04:32:00,26.0,21.0,-100.00,WNW,285,10.0,15.0,79,0.00,,,-99.99,,2013-03-12 09:32:00,
2013-03-12 04:42:00,26.0,21.0,-100.00,WNW,285,10.0,15.0,79,0.00,,,-99.99,,2013-03-12 09:42:00,
2013-03-12 04:52:00,26.0,20.0,-100.00,WNW,295,9.0,12.0,80,0.00,,,-99.99,,2013-03-12 09:52:00,
2013-03-12 05:02:00,26.0,20.0,-100.00,WNW,295,9.0,12.0,80,0.00,,,-99.99,,2013-03-12 10:02:00,
2013-03-12 05:12:00,25.0,20.0,-100.00,WNW,290,10.0,12.0,80,0.00,,,-99.99,,2013-03-12 10:12:00,
2013-03-12 05:22:00,24.0,19.0,-100.00,WNW,290,9.0,12.0,81,0.00,,,-99.99,,2013-03-12 10:22:00,
2013-03-12 05:32:00,24.0,19.0,-100.00,WNW,285,8.0,12.0,82,0.00,,,-99.99,,2013-03-12 10:32:00,
2013-03-12 05:42:00,24.0,19.0,-100.00,WNW,285,8.0,12.0,82,0.00,,,-99.99,,2013-03-12 10:42:00,
2013-03-12 05:52:00,25.0,21.0,-100.00,West,275,11.0,17.0,84,0.00,,,-99.99,,2013-03-12 10:52:00,
2013-03-12 06:02:00,25.0,21.0,-100.00,West,275,11.0,17.0,84,0.00,,,-99.99,,2013-03-12 11:02:00,
2013-03-12 06:12:00,26.0,22.0,-100.00,West,275,11.0,15.0,83,0.00,,,-99.99,,2013-03-12 11:12:00,
2013-03-12 06:22:00,26.0,22.0,-100.00,West,280,12.0,14.0,83,0.00,,,-99.99,,2013-03-12 11:22:00,
2013-03-12 06:32:00,26.0,21.0,-100.00,WNW,285,12.0,15.0,83,0.00,,,-99.99,,2013-03-12 11:32:00,
2013-03-12 06:42:00,26.0,21.0,-100.00,WNW,285,12.0,15.0,83,0.00,,,-99.99,,2013-03-12 11:42:00,
2013-03-12 06:52:00,26.0,22.0,-100.00,West,275,12.0,20.0,83,0.00,,,-99.99,,2013-03-12 11:52:00,
2013-03-12 07:02:00,26.0,22.0,-100.00,West,275,12.0,20.0,83,0.00,,,-99.99,,2013-03-12 12:02:00,
2013-03-12 07:12:00,26.0,22.0,-100.00,West,280,17.0,22.0,83,0.00,,,-99.99,,2013-03-12 12:12:00,
2013-03-12 07:22:00,26.0,21.0,-100.00,West,275,16.0,21.0,83,0.00,,,-99.99,,2013-03-12 12:22:00,
2013-03-12 07:32:00,25.0,21.0,-100.00,West,275,14.0,19.0,84,0.00,,,-99.99,,2013-03-12 12:32:00,
2013-03-12 07:42:00,25.0,21.0,-100.00,West,275,14.0,19.0,84,0.00,,,-99.99,,2013-03-12 12:42:00,
2013-03-12 07:52:00,25.0,21.0,-100.00,West,270,13.0,18.0,84,0.00,,,-99.99,,2013-03-12 12:52:00,
2013-03-12 08:02:00,25.0,21.0,-100.00,West,270,13.0,18.0,84,0.00,,,-99.99,,2013-03-12 13:02:00,
2013-03-12 08:12:00,26.0,22.0,-100.00,West,280,12.0,17.0,84,0.00,,,-99.99,,2013-03-12 13:12:00,
2013-03-12 08:22:00,26.0,22.0,-100.00,West,280,13.0,17.0,84,0.00,,,-99.99,,2013-03-12 13:22:00,
2013-03-12 08:32:00,27.0,23.0,-100.00,West,280,14.0,17.0,84,0.00,,,-99.99,,2013-03-12 13:32:00,
2013-03-12 08:42:00,27.0,23.0,-100.00,West,280,14.0,17.0,84,0.00,,,-99.99,,2013-03-12 13:42:00,
2013-03-12 08:52:00,27.0,23.0,-100.00,West,275,13.0,20.0,84,0.04,,,-99.99,,2013-03-12 13:52:00,
2013-03-12 09:02:00,27.0,23.0,-100.00,West,275,13.0,20.0,84,0.04,,,-99.99,,2013-03-12 14:02:00,
2013-03-12 09:12:00,27.0,23.0,-100.00,WNW,285,13.0,17.0,85,0.03,,,-99.99,,2013-03-12 14:12:00,
2013-03-12 09:22:00,27.0,24.0,-100.00,West,280,15.0,19.0,86,0.03,,,-99.99,,2013-03-12 14:22:00,
2013-03-12 09:32:00,27.0,24.0,-100.00,WNW,300,13.0,17.0,87,0.04,,,-99.99,,2013-03-12 14:32:00,
2013-03-12 09:42:00,27.0,24.0,-100.00,WNW,300,13.0,17.0,87,0.04,,,-99.99,,2013-03-12 14:42:00,
2013-03-12 09:52:00,28.0,25.0,-100.00,WNW,300,14.0,19.0,88,0.07,,,-99.99,,2013-03-12 14:52:00,
2013-03-12 10:02:00,28.0,25.0,-100.00,WNW,300,14.0,19.0,88,0.07,,,-99.99,,2013-03-12 15:02:00,
2013-03-12 10:12:00,28.0,25.0,-100.00,WSW,245,15.0,19.0,88,0.03,,,-99.99,,2013-03-12 15:12:00,
2013-03-12 10:22:00,27.0,23.0,-100.00,WNW,300,18.0,28.0,86,0.00,,,-99.99,,2013-03-12 15:22:00,
2013-03-12 10:32:00,25.0,21.0,-100.00,NW,310,22.0,29.0,84,0.00,,,-99.99,,2013-03-12 15:32:00,
2013-03-12 10:42:00,25.0,21.0,-100.00,NW,310,22.0,29.0,84,0.00,,,-99.99,,2013-03-12 15:42:00,
2013-03-12 10:52:00,25.0,21.0,-100.00,WNW,300,20.0,27.0,83,0.00,,,-99.99,,2013-03-12 15:52:00,
2013-03-12 11:02:00,24.0,20.0,-100.00,NW,320,21.0,26.0,82,0.00,,,-99.99,,2013-03-12 16:02:00,
2013-03-12 11:12:00,24.0,19.0,-100.00,NW,315,21.0,26.0,81,0.00,,,-99.99,,2013-03-12 16:12:00,
2013-03-12 11:22:00,24.0,19.0,-100.00,WNW,300,19.0,25.0,80,0.00,,,-99.99,,2013-03-12 16:22:00,
2013-03-12 11:33:00,25.0,19.0,-100.00,NW,315,21.0,27.0,77,0.00,,,-99.99,,2013-03-12 16:33:00,
2013-03-12 11:42:00,25.0,19.0,-100.00,NW,315,21.0,27.0,77,0.00,,,-99.99,,2013-03-12 16:42:00,
2013-03-12 11:52:00,25.0,17.0,-100.00,WNW,300,22.0,27.0,74,0.00,,,-99.99,,2013-03-12 16:52:00,
2013-03-12 12:02:00,25.0,17.0,-100.00,WNW,300,22.0,27.0,74,0.00,,,-99.99,,2013-03-12 17:02:00,
2013-03-12 12:12:00,25.0,18.0,-100.00,WNW,295,19.0,26.0,73,0.00,,,-99.99,,2013-03-12 17:12:00,
2013-03-12 12:22:00,25.0,18.0,-100.00,NW,310,18.0,27.0,74,0.00,,,-99.99,,2013-03-12 17:22:00,
2013-03-12 12:33:00,24.0,17.0,-100.00,NW,305,22.0,27.0,72,0.00,,,-99.99,,2013-03-12 17:33:00,
2013-03-12 12:43:00,24.0,17.0,-100.00,NW,305,22.0,27.0,72,0.00,,,-99.99,,2013-03-12 17:43:00,
2013-03-12 12:53:00,25.0,17.0,-100.00,WSW,250,18.0,26.0,70,0.00,,,-99.99,,2013-03-12 17:53:00,
2013-03-12 13:02:00,25.0,17.0,-100.00,WSW,250,18.0,26.0,70,0.00,,,-99.99,,2013-03-12 18:02:00,
2013-03-12 13:12:00,25.0,16.0,-100.00,NW,310,21.0,26.0,68,0.00,,,-99.99,,2013-03-12 18:12:00,
2013-03-12 13:22:00,25.0,16.0,-100.00,WNW,295,21.0,27.0,68,0.00,,,-99.99,,2013-03-12 18:22:00,
2013-03-12 13:33:00,25.0,17.0,-100.00,NW,310,21.0,25.0,69,0.00,,,-99.99,,2013-03-12 18:33:00,
2013-03-12 13:42:00,25.0,17.0,-100.00,NW,310,21.0,25.0,69,0.00,,,-99.99,,2013-03-12 18:42:00,
2013-03-12 13:53:00,25.0,16.0,-100.00,NW,310,23.0,31.0,70,0.00,,,-99.99,,2013-03-12 18:53:00,
2013-03-12 14:03:00,25.0,16.0,-100.00,NW,310,23.0,31.0,70,0.00,,,-99.99,,2013-03-12 19:03:00,
2013-03-12 14:13:00,25.0,17.0,-100.00,SW,225,23.0,29.0,70,0.00,,,-99.99,,2013-03-12 19:13:00,
2013-03-12 14:22:00,25.0,17.0,-100.00,WSW,240,25.0,29.0,70,0.00,,,-99.99,,2013-03-12 19:22:00,
2013-03-12 14:33:00,25.0,17.0,-100.00,NW,310,23.0,29.0,70,0.00,,,-99.99,,2013-03-12 19:33:00,
2013-03-12 14:43:00,25.0,17.0,-100.00,NW,310,23.0,29.0,70,0.00,,,-99.99,,2013-03-12 19:43:00,
2013-03-12 14:52:00,25.0,17.0,-100.00,NW,310,22.0,31.0,70,0.00,,,-99.99,,2013-03-12 19:52:00,
2013-03-12 15:02:00,25.0,17.0,-100.00,NW,310,22.0,31.0,70,0.00,,,-99.99,,2013-03-12 20:02:00,
2013-03-12 15:12:00,25.0,17.0,-100.00,NW,310,22.0,32.0,72,0.00,,,-99.99,,2013-03-12 20:12:00,
2013-03-12 15:22:00,24.0,17.0,-100.00,West,265,25.0,32.0,72,0.00,,,-99.99,,2013-03-12 20:22:00,
2013-03-12 15:32:00,25.0,17.0,-100.00,WNW,300,23.0,28.0,73,0.00,,,-99.99,,2013-03-12 20:32:00,
2013-03-12 15:42:00,25.0,17.0,-100.00,WNW,300,23.0,28.0,73,0.00,,,-99.99,,2013-03-12 20:42:00,
2013-03-12 15:52:00,25.0,17.0,-100.00,West,270,23.0,28.0,74,0.00,,,-99.99,,2013-03-12 20:52:00,
2013-03-12 16:02:00,25.0,17.0,-100.00,West,270,23.0,28.0,74,0.00,,,-99.99,,2013-03-12 21:02:00,
2013-03-12 16:12:00,24.0,17.0,-100.00,SSW,200,24.0,31.0,74,0.00,,,-99.99,,2013-03-12 21:12:00,
2013-03-12 16:22:00,24.0,17.0,-100.00,SSW,200,24.0,31.0,74,0.00,,,-99.99,,2013-03-12 21:22:00,
2013-03-12 16:32:00,24.0,17.0,-100.00,SW,230,26.0,32.0,75,0.00,,,-99.99,,2013-03-12 21:32:00,
2013-03-12 16:42:00,24.0,17.0,-100.00,SW,230,26.0,32.0,75,0.00,,,-99.99,,2013-03-12 21:42:00,
2013-03-12 16:52:00,24.0,17.0,-100.00,WNW,295,22.0,33.0,74,0.00,,,-99.99,,2013-03-12 21:52:00,
2013-03-12 17:02:00,24.0,17.0,-100.00,WNW,295,22.0,33.0,74,0.00,,,-99.99,,2013-03-12 22:02:00,
2013-03-12 17:12:00,24.0,17.0,-100.00,WSW,240,21.0,28.0,74,0.00,,,-99.99,,2013-03-12 22:12:00,
2013-03-12 17:22:00,24.0,18.0,-100.00,SW,215,21.0,27.0,75,0.00,,,-99.99,,2013-03-12 22:22:00,
2013-03-12 17:33:00,23.0,17.0,-100.00,SW,235,24.0,29.0,77,0.00,,,-99.99,,2013-03-12 22:33:00,
2013-03-12 17:42:00,23.0,17.0,-100.00,SW,235,24.0,29.0,77,0.00,,,-99.99,,2013-03-12 22:42:00,
2013-03-12 17:52:00,24.0,17.0,-100.00,SW,235,24.0,28.0,76,0.00,,,-99.99,,2013-03-12 22:52:00,
2013-03-12 18:02:00,24.0,17.0,-100.00,SW,235,24.0,28.0,76,0.00,,,-99.99,,2013-03-12 23:02:00,
2013-03-12 18:12:00,23.0,17.0,-100.00,SW,225,26.0,32.0,75,0.01,,,-99.99,,2013-03-12 23:12:00,
2013-03-12 18:22:00,23.0,16.0,-100.00,SW,235,20.0,30.0,75,0.00,,,-99.99,,2013-03-12 23:22:00,
2013-03-12 18:34:00,23.0,17.0,-100.00,SW,230,19.0,27.0,76,0.04,,,-99.99,,2013-03-12 23:34:00,
2013-03-12 18:43:00,23.0,17.0,-100.00,SW,230,19.0,27.0,76,0.04,,,-99.99,,2013-03-12 23:43:00,
2013-03-12 18:52:00,23.0,18.0,-100.00,West,275,21.0,27.0,80,0.20,,,-99.99,,2013-03-12 23:52:00,
2013-03-12 19:02:00,23.0,18.0,-100.00,West,275,21.0,27.0,80,0.20,,,-99.99,,2013-03-13 00:02:00,
2013-03-12 19:12:00,22.0,18.0,-100.00,West,260,23.0,29.0,84,0.14,,,-99.99,,2013-03-13 00:12:00,
2013-03-12 19:22:00,22.0,18.0,-100.00,West,265,24.0,29.0,84,0.06,,,-99.99,,2013-03-13 00:22:00,
2013-03-12 19:33:00,21.0,17.0,-100.00,WSW,245,24.0,32.0,82,0.03,,,-99.99,,2013-03-13 00:33:00,
2013-03-12 19:42:00,21.0,17.0,-100.00,WSW,245,24.0,32.0,82,0.03,,,-99.99,,2013-03-13 00:42:00,
2013-03-12 19:52:00,20.0,16.0,-100.00,SW,235,21.0,29.0,81,0.00,,,-99.99,,2013-03-13 00:52:00,
2013-03-12 20:02:00,20.0,16.0,-100.00,SW,235,21.0,29.0,81,0.00,,,-99.99,,2013-03-13 01:02:00,
2013-03-12 20:12:00,20.0,15.0,-100.00,WNW,290,21.0,27.0,80,0.00,,,-99.99,,2013-03-13 01:12:00,
2013-03-12 20:22:00,20.0,15.0,-100.00,WSW,250,19.0,25.0,80,0.00,,,-99.99,,2013-03-13 01:22:00,
2013-03-12 20:32:00,20.0,15.0,-100.00,NW,305,20.0,27.0,81,0.00,,,-99.99,,2013-03-13 01:32:00,
2013-03-12 20:42:00,20.0,15.0,-100.00,NW,305,20.0,27.0,81,0.00,,,-99.99,,2013-03-13 01:42:00,
2013-03-12 20:52:00,20.0,15.0,-100.00,SW,220,18.0,22.0,81,0.00,,,-99.99,,2013-03-13 01:52:00,
2013-03-12 21:02:00,20.0,15.0,-100.00,SW,220,18.0,22.0,81,0.00,,,-99.99,,2013-03-13 02:02:00,
2013-03-12 21:12:00,20.0,15.0,-100.00,SW,235,19.0,24.0,81,0.00,,,-99.99,,2013-03-13 02:12:00,
2013-03-12 21:22:00,20.0,15.0,-100.00,WSW,255,19.0,23.0,81,0.00,,,-99.99,,2013-03-13 02:22:00,
2013-03-12 21:32:00,19.0,15.0,-100.00,WSW,245,21.0,29.0,81,0.00,,,-99.99,,2013-03-13 02:32:00,
2013-03-12 21:42:00,19.0,15.0,-100.00,WSW,245,21.0,29.0,81,0.00,,,-99.99,,2013-03-13 02:42:00,
2013-03-12 21:52:00,19.0,15.0,-100.00,WSW,245,21.0,27.0,81,0.00,,,-99.99,,2013-03-13 02:52:00,
2013-03-12 22:02:00,19.0,15.0,-100.00,WSW,245,21.0,27.0,81,0.00,,,-99.99,,2013-03-13 03:02:00,
2013-03-12 22:12:00,19.0,15.0,-100.00,SW,225,21.0,26.0,81,0.00,,,-99.99,,2013-03-13 03:12:00,
2013-03-12 22:22:00,19.0,15.0,-100.00,WSW,240,20.0,25.0,81,0.00,,,-99.99,,2013-03-13 03:22:00,
2013-03-12 22:32:00,19.0,15.0,-100.00,SW,235,20.0,26.0,81,0.00,,,-99.99,,2013-03-13 03:32:00,
2013-03-12 22:42:00,19.0,15.0,-100.00,SW,235,20.0,26.0,81,0.00,,,-99.99,,2013-03-13 03:42:00,
2013-03-12 22:52:00,19.0,15.0,-100.00,WSW,255,22.0,25.0,81,0.00,,,-99.99,,2013-03-13 03:52:00,
2013-03-12 23:02:00,19.0,15.0,-100.00,WSW,255,22.0,25.0,81,0.00,,,-99.99,,2013-03-13 04:02:00,
2013-03-12 23:13:00,19.0,14.0,-100.00,West,260,19.0,24.0,81,0.00,,,-99.99,,2013-03-13 04:13:00,
2013-03-12 23:22:00,19.0,14.0,-100.00,West,265,18.0,24.0,81,0.00,,,-99.99,,2013-03-13 04:22:00,
2013-03-12 23:32:00,18.0,14.0,-100.00,WSW,245,17.0,22.0,81,0.00,,,-99.99,,2013-03-13 04:32:00,
2013-03-12 23:42:00,18.0,14.0,-100.00,WSW,245,17.0,22.0,81,0.00,,,-99.99,,2013-03-13 04:42:00,
2013-03-12 23:52:00,18.0,14.0,-100.00,WSW,245,18.0,24.0,82,0.00,,,-99.99,,2013-03-13 04:52:00,